Starlink 1454

operational
NORAD ID: 45671 Int'l Des: 2020-035 Owner: SPXS Country: US Constellation: starlink
LEOCIRCULARSTARLINK_TYPE

Starlink 1454について

説明を読み込み中...

リアルタイム位置

3D地球を読み込み中...

次回通過

高度履歴

Altitude vs Time

uPlot chart will show altitude changes over time

軌道要素

1 45671U 20035Q 26036.91670139 .00213584 00000-0 43962-2 0 9995
2 45671 53.0539 204.8033 0002800 287.8142 69.8476 15.44656541 5738
Epoch: Feb 5, 2026 • Age: 4 hours

現在のステータス

高度 434.2 km
速度 7.65 km/s
衛星直下点 -4.74°S, 137.41°W
打ち上げ日 Jun 4, 2020
運用期間 5.6 years
タイプ internet

技術仕様

分類 Payload
質量 260.00 kg
乾燥質量 248.00 kg
総質量 260.00 kg
長さ 0.20 m
直径 2.80 m
スパン 9.00 m
形状 Box + pan
製造者 SPXS
バスタイプ Starlink
フェーズステータス In Orbit
所有者/国 SPXS/US

大規模コンステレーション

Loading constellations...